Regional Weather Roundup
Issued by NWS

Home | Current Version | Previous Version | Graphics & Text | Print | Product List | Glossary On
Versions: 1 2 3 4 5 6 7 8 9 10 11 12 13 14 15 16 17 18 19 20 21 22 23 24 25 26 27 28 29 30 31 32 33 34 35 36 37 38 39 40 41 42 43 44 45 46 47 48 49 50
970
ASUS44 KJAN 270910
RWRMS

MISSISSIPPI HOURLY WEATHER ROUNDUP
NATIONAL WEATHER SERVICE JACKSON MS
300 AM CST THU NOV 27 2014

NOTE: "FAIR: INDICATES FEW OR NO CLOUDS BELOW 12,000 FEET WITH NO
SIGNIFICANT WEATHER AND/OR OBSTRUCTIONS TO VISIBILITY.

MSZ001>002-007>008-010>013-018>021-025>028-034>036-271000-
NORTHWEST MISSISSIPPI

CITY           SKY/WX    TMP DP  RH WIND       PRES   REMARKS
CLARKSDALE     FAIR      37  32  81 NW8       30.33R WCI  31
CLEVELAND      FAIR      38  34  82 NW9       30.33R WCI  32
GREENWOOD      CLEAR     35  30  82 CALM      30.31R
GREENVILLE     CLEAR     42  31  64 NW10      30.32R
GRENADA        FAIR      34  30  86 NW5       30.30R WCI  30
OLIVE BRANCH   CLEAR     37  32  81 NW15      30.29R WCI  28
OXFORD         FAIR      37  27  65 NW12      30.29R WCI  30
TUNICA         SUNNY     37  30  75 NW17      30.32R WCI  28
$$

MSZ003>006-009-014>017-022>024-029>033-037>039-271000-
NORTHEAST MISSISSIPPI

CITY           SKY/WX    TMP DP  RH WIND       PRES   REMARKS
COLUMBUS AFB   CLEAR     40  29  64 NW8       30.26R
CORINTH        PTSUNNY   36  32  87 NW8       30.24R WCI  29
GOLDN TRIANGLE CLEAR     37  28  70 W3        30.26R
STARKVILLE       N/A     30  30 100 CALM      30.27R
TUPELO         CLEAR     40  29  64 NW7       30.26R
$$

MSZ040-058-271000-
CENTRAL MISSISSIPPI

CITY           SKY/WX    TMP DP  RH WIND       PRES   REMARKS
JACKSON INTL   CLEAR     45  30  55 NW6       30.29R
JACKSON HAWKNS CLEAR     43  29  57 NW6       30.30R
MERIDIAN KEY   CLEAR     34  31  88 CALM      30.27R
MERIDIAN NAS   CLEAR     35  31  85 W3        30.27R
RAYMOND        FAIR      39  36  87 MISG      30.32R
VICKSBURG      CLEAR     43  33  68 NW6       30.34R
$$

MSZ059>079-271000-
SOUTH MISSISSIPPI

CITY           SKY/WX    TMP DP  RH WIND       PRES   REMARKS
BROOKHAVEN     FAIR      43  36  75 CALM      30.32R
HATTIESBURG    CLEAR     40  37  89 W5        30.30R
MCCOMB         CLEAR     46  35  65 NW6       30.30R
NATCHEZ        CLEAR     48  32  53 N6        30.34R
PINE BELT      CLEAR     46  30  53 W5        30.29R
$$

MSZ080>082-271000-
COASTAL MISSISSIPPI

CITY           SKY/WX    TMP DP  RH WIND       PRES   REMARKS
BILOXI         CLEAR     51  45  81 VRB2      30.29R
PASCAGOULA     CLEAR     49  44  83 W6        30.29R
GULFPORT       CLEAR     47  44  90 NW3       30.29R
$$



USA.gov is the U.S. government's official web portal to all federal, state and local government web resources and services.